User: anonymous   Login
Location: Montauk Point State Park
(41.0718°N, 71.8593°W)
Time: 20:46:45
(UTC-04:00)
Language:

Cosmos 1844 - Orbit

View from above orbital plane
View from above orbital plane
View from above satellite
View from above satellite

Ground track
Ground track

The orbit data is extracted from the following two-line orbital elements,

1 17973U 87041A   16181.98710111  .00000144  00000-0  10087-3 0  9990
2 17973  70.9006 295.8344 0033021 292.8038  66.9596 14.14032054503358
Epoch (UTC): 29 June 2016 23:41:25
Eccentricity: 0.0033021
inclination: 70.9006°
perigee height: 822 km
apogee height: 869 km
right ascension of ascending node: 295.8344°
argument of perigee: 292.8038°
revolutions per day: 14.14032054
mean anomaly at epoch: 66.9596°
orbit number at epoch: 50335

The dashed part of the orbit path shows where the satellite is in the earth's shadow,  

DLR